Regional Weather Roundup
Issued by NWS Wakefield, VA

Home | Current Version | Previous Version | Graphics & Text | Print | Product List | Glossary On
Versions: 1 2 3 4 5 6 7 8 9 10 11 12 13 14 15 16 17 18 19 20 21 22 23 24 25 26 27
000
ASUS41 KAKQ 282115
RWRAKQ

REGIONAL WEATHER ROUNDUP
NATIONAL WEATHER SERVICE WAKEFIELD VA
500 PM EDT SUN AUG 28 2016

Note: "fair" indicates few or no clouds below 12,000 feet with no
significant weather and/or obstructions to visibility. * = Denotes
station may not report precipitation (e.g., rain,snow,etc.),
thunder or fog.

VAZ042-051-052>054-056-282200-
NORTHERN VIRGINIA

CITY           SKY/WX    TMP DP  RH WIND       PRES   REMARKS
WASH NATIONAL  MOSUNNY   88  64  44 SE9       30.16F
DULLES         MOSUNNY   89  59  36 SE9       30.16F
FORT BELVOIR   SUNNY     87  62  42 SE7       30.16F
QUANTICO       SUNNY     89  65  44 NE8       30.16
FREDERICKSBRG*   N/A     88  67  49 E8        30.15S
STAFFORD*      SUNNY     89  64  44 E7        30.20S
WARRENTON      SUNNY     89  55  31 SE3       30.16F
CULPEPER*      SUNNY     90  67  47 CALM      30.17S
MANASSAS*      SUNNY     88  63  42 CALM      30.16F
LEESBURG*      SUNNY     90  66  45 E7        30.17F
WINCHESTER     SUNNY     88  63  42 S7        30.17F
FRONT ROYAL*   FAIR      88  64  45 SE3       30.16F
LURAY*         FAIR      88  64  45 NE6       30.17F
$$

VAZ048-049-060>072-079>083-282200-
CENTRAL AND SOUTH CENTRAL VIRGINIA

CITY           SKY/WX    TMP DP  RH WIND       PRES   REMARKS
RICHMOND       PTSUNNY   87  63  44 E10       30.14F
CHESTERFIELD*  FAIR      90  59  35 E9        30.16F
PETERSBURG*    MOSUNNY   89  64  42 NE10G16   30.14F
HANOVER        SUNNY     87  65  47 VRB5      30.17F
TAPPAHANNOCK*  SUNNY     87  60  40 NE8       30.16F
QUINTON*       FAIR      88  66  48 N7        30.14F
CHARLOTTSVILLE SUNNY     90  61  37 SE5       30.17F
GORDONSVILLE*  FAIR      88  66  48 CALM      30.16S
ORANGE*          N/A     88  64  45 CALM      30.18F
LOUISA*        SUNNY     90  72  55 CALM      30.16S HX  96
BUMPASS*       FAIR      87  70  55 NE5       30.16F
FARMVILLE*     SUNNY     90  64  43 NE7       30.14F
CREWE*         FAIR      89  64  41 E6        30.15S
FORT PICKETT*  NOT AVBL
CHASE CITY*    FAIR      90  60  35 E5        30.14S
CLARKSVILLE*   FAIR      90  63  40 E6        30.13F
SOUTH HILL*    MOSUNNY   87  67  50 CALM      30.19F
LAWRENCEVILLE* FAIR      87  66  49 NE5       30.13F
EMPORIA*       MOSUNNY   88  63  42 N5        30.14F
$$

VAZ088>098-282200-
SOUTHEAST VIRGINIA

CITY           SKY/WX    TMP DP  RH WIND       PRES   REMARKS
NORFOLK        CLOUDY    80  71  74 NE12      30.15S
VIRGINIA BEACH PTSUNNY   86  71  60 E10G18    30.14S
NORFOLK NAVAL  PTSUNNY   82  71  69 E10       30.16S
WEST POINT*    MOSUNNY   88  63  43 NE8       30.16F
SALUDA*        FAIR      83  70  64 E6        30.16S
NEWPORT NEWS   CLOUDY    84  70  62 NE10      30.15F
LANGLEY AFB    CLOUDY    83  71  66 E13       30.14F
FORT EUSTIS    CLOUDY    88  72  58 NE12      30.12F
WILLIAMSBURG*  CLOUDY    90  70  51 E6        30.15F HX  95
HR EXEC AP*    FAIR      82  70  65 E12       30.16F
FRANKLIN*      PTSUNNY   86  69  57 E12       30.14S
US460-WAKEFLD  MOSUNNY   88  67  49 E8        30.13F
$$

VAZ020-022-025-037-045-282200-
WEST CENTRAL AND SOUTHWEST VIRGINIA

CITY           SKY/WX    TMP DP  RH WIND       PRES   REMARKS
STAUNTON*      SUNNY     87  64  46 SE6       30.21F
WAYNESBORO*    FAIR      86  57  37 SE7       30.21F
HOT SPRINGS VA MOSUNNY   80  64  58 E6        30.33S
LYNCHBURG      SUNNY     87  63  44 NE9       30.19F
DANVILLE       SUNNY     89  64  43 N8        30.14F
SOUTH BOSTON*  FAIR      91  61  36 E6        30.13F
MARTINSVILLE   SUNNY     88  64  45 E3        30.18F
ROANOKE        MOSUNNY   89  58  34 SE10      30.19F
BLACKSBURG     SUNNY     86  61  43 E9        30.25F
DUBLIN*        SUNNY     87  60  40 NE9       30.24S
MARION*        MOSUNNY   85  65  49 E8        30.26S
HILLSVILLE*    SUNNY     82  63  52 E6        30.25S
RICHLANDS*     FAIR      85  69  58 NE6       30.24F
WISE*          CLOUDY    82  59  44 NE8       30.26S
ABINGDON*      SUNNY     90  65  43 E10G16    30.19S
$$

MDZ021>025-VAZ099-100-282200-
SOUTHERN MARYLAND AND THE DELMARVA PENINSULA

CITY           SKY/WX    TMP DP  RH WIND       PRES   REMARKS
PATUXENT RIVER MOSUNNY   85  66  53 SE5       30.16F
BAY BRIDGE APT SUNNY     84  72  65 NW6       30.17S
LEONARDTOWN    SUNNY     84  64  51 CALM      30.18F
DOVER          SUNNY     84  71  65 SE9       30.16F
GEORGETOWN     NOT AVBL
EASTON         SUNNY     90  70  51 E12       30.19F HX  95
CAMBRIDGE      SUNNY     86  61  42 E6        30.16F
SALISBURY      SUNNY     84  62  47 E13       30.16F
OCEAN CITY     SUNNY     82  69  64 NE12      30.17F
WALLOPS ISLAND SUNNY     82  59  45 NE14      30.17F
ACCOMACK*      SUNNY     82  65  56 E14       30.16F
$$

NCZ012>017-030>032-282200-
NORTH CENTRAL AND EASTERN NORTH CAROLINA

CITY           SKY/WX    TMP DP  RH WIND       PRES   REMARKS
ROANOKE RAPIDS FAIR      84  70  61 NE5       30.12F
RALEIGH        PTSUNNY   88  65  46 NE12      30.13F
ELIZABETH CITY CLOUDY    83  73  72 NE16      30.12F
AHOSKIE*       PTSUNNY   83  69  60 NE9       30.12S
EDENTON*       CLOUDY    84  73  68 NE8       30.12S
CURRITUCK*       N/A     82  74  76 NE12G18   30.13F
KILL DEVIL HLS CLOUDY    84  80  88 NE7       30.10S HX  97
MANTEO         CLOUDY    82  78  87 NE16      30.11S
CAPE HATTERAS  CLOUDY    85  76  74 NE7       30.08F
TARBORO*       MOCLDY    85  73  67 CALM      30.11F
GOLDSBORO      LGT RAIN  77  77 100 N7        30.10F
WASHINGTON     LGT RAIN  75  73  94 E3        30.12R
GREENVILLE     CLOUDY    81  79  94 CALM      30.13S
NEW BERN       PTSUNNY   78  75  90 CALM      30.12S
WILMINGTON     LGT RAIN  74  71  91 N12       30.10S FOG
$$

VAZ048-282200-
ELSEWHERE

CITY           SKY/WX    TMP DP  RH WIND       PRES   REMARKS
HARRISBURG PA  MOSUNNY   89  64  43 SE8       30.16S
BALTIMORE      MOSUNNY   86  64  47 SE8       30.16F
ANNAPOLIS      SUNNY     87  68  52 CALM      30.16F
ANDREWS AFB    SUNNY     85  65  50 SE9       30.17F
PHILADELPHIA   MOSUNNY   89  63  41 S8        30.16F
HENDERSON NC   SUNNY     85  64  48 NE8       30.14F
GREENSBORO     PTSUNNY   88  60  38 NE12      30.14F
ROCKY MOUNT    CLOUDY    85  72  65 E3        30.12S
$$

VAZ100-282200-
MARINE

STATION/POSITION TIME  TEMP    WIND        PRES    WAVE   SWELL
                       AIR SEA DIR/SP/G            HT/PER HT/PER
                 (UTC) (F)     (DEG/KT/KT) (MB)    (FT/S) (FT/S)
BRANDYWINE LGT   2000   78     150/  7/  7   N/A
CAPE MAY NJ      2000   81 76   80/  9/ 12 1022.3F
LEWES DE         2000   80 78   40/  2/  6 1022.7F
OCEAN-CITY-INLET 2000   80 76   70/  6/  9 1022.7F
WACHAPREAGUE VA  2000   80 84   40/ 13/ 16 1021.7F
THOMAS POINT MD  2100   83 84   10/  6/  7 1022.7F
GOOSES REEF MD   2100   84 84  360/  8/  8 1021.8F   1
COVE POINT MD    2000   80     360/ 11/ 13 1022.4F
SOLOMONS ISLAND  2000   83 85  120/  5/  6   N/A
PINEY POINT MD   2000          110/  8/  9   N/A
POTOMAC MD       2100   83 84   50/  4/  8 1020.2F   0
CAMBRIDGE MD     2000   85 84   70/  8/ 10 1021.0F
LEWISETTA VA     2000   83 85   90/  6/  7 1021.4F
RAPPAHANNOCK LGT 2000           60/ 10/ 12 1021.9F
STINGRAY PT      2000   83 84  360/ 10/ 12 1022.0F   1/ 2
YORK RVR RNG VA  2000   82      60/ 11/ 12 1020.8F
YORKTOWN VA      2000   82 84   90/ 11/ 12 1020.9F
JAMESTOWN VA     2100   86 87   50/  6/ 12   N/A     0
DOMINION TERM VA 2000   82      70/ 11/ 16 1021.0F
KIPTOPEKE VA     2000      82   70/  9/ 13   N/A
CHES BAY BRIDGE  2000   79 78   40/ 16/ 18 1020.6F
CAPE HENRY VA    2000   79      30/ 13/ 17   N/A
WILLOUBY STN VA  2000   80      60/ 13/ 15   N/A
CAPE HENRY BUOY  2012      80                N/A     4/ 5
1ST LANDING BUOY 2100   78 77   80/ 10/ 12 1020.6R   3/ 3
CAPE CHARLES BUO 2026      80                N/A     4/ 6
OFFSHORE WE BUOY 2021      81                N/A     4/ 5
64NM E OF VA BCH 2050   81 81   50/ 17/ 19 1019.2F   4/ 6   2/ 8
DUCK PIER NC     2000   80 77   40/ 16/ 18 1019.6F
44100 DUCK FRF   2005      80                N/A     5/ 6
44056 DUCK FRF   2011      78                N/A     4/ 5
OREGON INLET NC  2000   83 79   40/  8/ 11 1019.4F
HATTERAS NC      2000   81 83   40/  5/  6 1018.9F
DIAMOND SHLS NC  2050   84 85   70/ 10/ 12 1018.2F   3/15   3/15
CAPE LOOKOUT NC  2100   83      40/  9/ 10 1018.3F
$$




USA.gov is the U.S. government's official web portal to all federal, state and local government web resources and services.